12:31 MESZ | 06.05.2026 Profi-Wetter| Mobile Seite| Kontakt| Impressum| Datenschutz
Social

Wetterstation Wiesbaden

Messwerte
  Temperatur Wetter Niederschlag Luftdruck Wind
Mi, 11:55 Uhr 19° - 1006 hPa 14 km/h SW
Mi, 10:55 Uhr 17° - 1005 hPa 14 km/h S
Mi, 09:55 Uhr 16° - 1006 hPa 14 km/h SW
Mi, 08:55 Uhr 16° - 1006 hPa 11 km/h SW
Mi, 07:55 Uhr 15° - 1006 hPa 11 km/h S
Mi, 06:57 Uhr 14° - 1006 hPa 10 km/h SW
Mi, 06:55 Uhr 14° - 1006 hPa 10 km/h SW
Mi, 05:55 Uhr 14° - 1006 hPa 5 km/h
Mi, 04:55 Uhr 16° - 1006 hPa 5 km/h
Mi, 03:55 Uhr 14° - 1007 hPa 5 km/h
Di, 20:55 Uhr 17° - 1007 hPa 11 km/h
Di, 19:55 Uhr 17° - 1008 hPa 11 km/h
Di, 18:55 Uhr 17° - 1007 hPa 11 km/h
Di, 17:55 Uhr 17° - 1008 hPa 11 km/h
Di, 16:55 Uhr 18° - 1008 hPa 5 km/h
Di, 15:55 Uhr 19° - 1008 hPa 5 km/h
Di, 15:15 Uhr 22° - 1008 hPa 5 km/h
Di, 14:55 Uhr 22° - 1008 hPa 5 km/h
Di, 14:28 Uhr 22° - 1008 hPa 5 km/h
Di, 13:55 Uhr 22° - 1008 hPa 5 km/h

Alle Zeitangaben MESZ